Regional Weather Roundup
Issued by NWS Kansas City/Pleasant Hill, MO

Home | Current Version | Previous Version | Text Only | Print | Product List | Glossary On
Versions: 1 2 3 4 5 6 7 8 9 10 11 12 13 14 15 16 17 18 19 20 21 22 23 24 25 26 27 28 29 30 31 32 33 34 35 36 37 38 39 40 41 42 43 44 45 46 47 48 49 50
000
ASUS43 KEAX 200311
RWREAX

WEATHER ROUNDUP FOR EASTERN KANSAS AND NORTHWEST MISSOURI
NATIONAL WEATHER SERVICE KANSAS CITY/PLEASANT HILL MO
900 PM CST FRI DEC 19 2014

KSZ040-057-103>105-MOZ028-029-037-043-200400-
...KANSAS CITY METROPOLITAN AREA...

CITY           SKY/WX    TMP DP  RH WIND       PRES   REMARKS
K.C. INTL      DRIZZLE   32  31  96 SW3       30.20S FOG
K.C. DOWNTOWN  CLOUDY    35  32  88 CALM      30.22R FOG
LEES SUMMIT    CLOUDY    34  33  96 CALM      30.21S FOG
OLATHE - IXD   LGT SNOW  32  32 100 SW5       30.20F FOG     WCI  27
OLATHE - OJC   CLOUDY    33  33 100 SW3       30.20S FOG
LAWRENCE       CLOUDY    33  28  81 W5        30.21F WCI  29

$$

MOZ001>008-011>017-020>025-030>033-038>040-044>046-053-054-200400-
...NORTHERN AND CENTRAL MISSOURI...

CITY           SKY/WX    TMP DP  RH WIND       PRES   REMARKS
ST. JOSEPH     CLOUDY    32  29  88 SW5       30.22S WCI  27
MOSBY          CLOUDY    32  32 100 CALM      30.22S FOG
WARRENSBURG    CLOUDY    34  34 100 CALM      30.22R FOG
WHITEMAN AFB   CLOUDY    36  36 100 E3        30.21S FOG
CLINTON        CLOUDY    37  37 100 CALM      30.22R
SEDALIA        CLOUDY    36  35  96 SE5       30.21F FOG     WCI  32
WARSAW         NOT AVBL
MARSHALL       CLOUDY    37  37 100 CALM      30.23S FOG
CHILLICOTHE      N/A     34  32  92 CALM      30.24R
MOBERLY        CLOUDY    34  30  86 E5        30.23S HAZE    WCI  30
KIRKSVILLE     CLOUDY    32  31  96 SE8       30.23S FOG     WCI  25

$$

MOZ041-047>049-056>058-063>065-088>090-097-200400-
...EASTERN AND SOUTHERN MISSOURI...

CITY           SKY/WX    TMP DP  RH WIND       PRES   REMARKS
ST. LOUIS INTL CLOUDY    36  28  73 E8        30.26S WCI  30
SPIRIT OF STL  CLOUDY    36  29  75 CALM      30.25S
COLUMBIA       CLOUDY    35  32  88 SE7       30.22S WCI  29
JEFFERSON CITY CLOUDY    36  32  85 E7        30.24S WCI  30
HANNIBAL       CLOUDY    34  27  75 SE3       30.25S
ROLLA          CLOUDY    34  32  92 SE5       30.20S WCI  30
LEBANON        CLOUDY    36  34  93 SE5       30.20S FOG     WCI  32
OSAGE BEACH    CLOUDY    37  34  87 CALM      30.21S
SPRINGFIELD    CLOUDY    38  36  92 SE8       30.18S FOG     WCI  32
BRANSON        FOG       37  36  93 CALM      30.20S VSB 1/2
NEVADA         FOG       37  37 100 CALM      30.22R VSB 1/2
JOPLIN         FOG       39  39 100 CALM      30.20S VSB 1/4
WEST PLAINS    CLOUDY    35  32  88 CALM      30.22S

$$

IAZ060-094-KSZ022-034>040-054-083-096-NEZ052-066-093-200400-
...KANSAS...SOUTHEAST NEBRASKA AND IOWA...

CITY           SKY/WX    TMP DP  RH WIND       PRES   REMARKS
TOPEKA         CLOUDY    33  28  81 S5        30.21F WCI  29
MANHATTAN      CLOUDY    34  31  88 S5        30.17F WCI  30
EMPORIA        CLOUDY    32  29  88 S5        30.19S WCI  27
CHANUTE        FOG       34  34 100 NW3       30.21S VSB 1/4
WICHITA        CLOUDY    38  33  82 S8        30.18R WCI  32
OMAHA          DRIZZLE   32  29  88 S9        30.16F FOG     WCI  24
LINCOLN        CLOUDY    34  30  85 S10       30.13F WCI  26
FALLS CITY     CLOUDY    30  27  88 SE8       30.18F WCI  22
LAMONI         CLOUDY    31  30  96 S5        30.19S FOG     WCI  26
DES MOINES     CLOUDY    32  29  88 SE9       30.20S FOG     WCI  24

$$



USA.gov is the U.S. government's official web portal to all federal, state and local government web resources and services.